Temp
-5 -6 -6 -7 -8 -8 -8 -7 -7 -7 -7 -7 -6 -7 -6 -6 -7 -6 -6 -6 -6 -6 -5 -5 -6 -5 -5 -6 -6 -6 -6 -6 -6 -7 -7 -7 -6 -6 -5 -6 -6 -5 -5 -5
-5 -6 -7 -7 -7 -7 -7 -7 -7 -6 -6 -6 -7 -6 -4 -6 -7 -5 -5 -6 -6 -6 -5 -5 -5 -5 -5 -5 -6 -6 -6 -6 -6 -7 -7 -6 -6 -6 -6 -6 -5 -6 -6 -6
-6 -7 -8 -7 -7 -7 -7 -7 -6 -6 -6 -6 -6 -7 -6 -6 -5 -5 -5 -5 -6 -6 -6 -5 -5 -5 -5 -5 -5 -6 -6 -6 -6 -6 -6 -6 -6 -6 -6 -6 -6 -6 -6 -6
-7 -7 -7 -7 -6 -7 -7 -7 -6 -5 -5 -5 -6 -7 -7 -6 -6 -5 -5 -5 -6 -6 -6 -6 -5 -5 -5 -5 -5 -5 -6 -6 -6 -6 -6 -6 -6 -6 -6 -6 -6 -6 -6 -6
-6 -6 -7 -6 -7 -5 -5 -6 -6 -5 -4 -5 -5 -6 -5 -6 -6 -6 -6 -5 -5 -5 -6 -6 -6 -5 -5 -5 -5 -5 -5 -5 -6 -6 -6 -6 -6 -6 -6 -6 -7 -6 -6 -6
-7 -7 -7 -7 -6 -7 -6 -6 -6 -6 -5 -6 -5 -5 -5 -6 -6 -5 -5 -5 -6 -5 -5 -6 -5 -6 -5 -5 -5 -5 -5 -5 -6 -6 -6 -6 -6 -6 -6 -6 -6 -6 -6 -6
-7 -7 -7 -7 -7 -6 -7 -7 -6 -6 -6 -6 -6 -5 -6 -6 -6 -6 -6 -6 -6 -6 -6 -5 -6 -5 -5 -5 -5 -5 -5 -5 -5 -6 -6 -6 -6 -6 -6 -6 -6 -6 -7 -6
-7 -7 -7 -7 -7 -6 -7 -7 -7 -6 -6 -6 -6 -5 -6 -6 -6 -6 -6 -6 -6 -6 -5 -5 -5 -6 -6 -6 -5 -5 -5 -5 -6 -6 -6 -6 -6 -6 -6 -6 -6 -6 -6 -7
-7 -7 -7 -6 -7 -7 -7 -6 -7 -6 -6 -6 -6 -6 -6 -6 -6 -6 -7 -7 -6 -6 -6 -5 -6 -6 -6 -6 -6 -6 -6 -5 -6 -6 -6 -6 -6 -6 -6 -6 -6 -6 -6 -8
-7 -7 -7 -7 -7 -7 -7 -7 -7 -6 -6 -6 -6 -7 -7 -7 -7 -7 -7 -6 -6 -7 -7 -7 -7 -7 -7 -6 -6 -6 -6 -6 -6 -6 -6 -6 -6 -6 -6 -6 -6 -7 -7 -7
-7 -7 -7 -7 -8 -8 -7 -7 -7 -6 -7 -6 -6 -7 -7 -7 -7 -7 -7 -7 -7 -7 -7 -7 -7 -7 -7 -8 -7 -7 -7 -7 -7 -7 -6 -7 -7 -7 -7 -7 -7 -6 -7 -7
-7 -6 -6 -7 -8 -7 -7 -7 -7 -7 -7 -7 -7 -7 -7 -8 -7 -6 -6 -6 -7 -7 -8 -8 -7 -7 -8 -8 -8 -7 -6 -7 -7 -7 -7 -7 -7 -7 -7 -7 -7 -7 -7 -7
-6 -6 -6 -8 -8 -8 -8 -8 -8 -7 -7 -7 -7 -7 -7 -8 -7 -5 -5 -6 -7 -8 -8 -8 -8 -8 -8 -8 -8 -8 -7 -7 -6 -7 -7 -7 -7 -8 -8 -7 -7 -7 -7 -8
-6 -7 -7 -7 -8 -8 -8 -8 -8 -7 -7 -7 -7 -8 -8 -8 -8 -7 -6 -5 -6 -8 -8 -7 -7 -7 -7 -6 -7 -6 -6 -6 -5 -6 -7 -7 -7 -7 -8 -8 -8 -8 -7 -8
-6 -6 -6 -6 -7 -7 -7 -7 -7 -7 -7 -6 -7 -8 -8 -8 -8 -8 -9 -6 -6 -6 -8 -8 -7 -7 -8 -8 -7 -7 -6 -6 -6 -6 -6 -7 -8 -8 -8 -8 -8 -8 -8 -8
-6 -6 -6 -6 -6 -6 -6 -6 -6 -7 -7 -7 -7 -6 -7 -7 -8 -9 -8 -7 -6 -6 -7 -7 -8 -8 -7 -8 -8 -8 -7 -7 -6 -6 -7 -7 -7 -7 -9 -8 -8 -8 -8 -8
-7 -7 -6 -6 -6 -6 -6 -7 -7 -7 -7 -7 -7 -7 -6 -8 -8 -7 -6 -6 -6 -6 -6 -6 -6 -7 -7 -8 -8 -8 -8 -8 -8 -8 -8 -7 -7 -7 -7 -7 -8 -7 -8 -8
-7 -7 -6 -6 -6 -6 -7 -7 -8 -7 -8 -8 -8 -6 -6 -7 -7 -6 -6 -6 -6 -6 -6 -6 -6 -7 -7 -7 -8 -9 -9 -9 -9 -9 -8 -8 -8 -8 -7 -8 -8 -8 -8 -8
-7 -7 -7 -7 -7 -7 -7 -7 -7 -6 -7 -7 -7 -6 -6 -7 -7 -7 -7 -7 -7 -6 -7 -8 -9 -8 -7 -6 -7 -8 -9 -9 -9 -9 -9 -9 -9 -9 -9 -9 -8 -8 -8 -9
-6 -8 -7 -7 -7 -7 -8 -7 -6 -6 -8 -7 -7 -6 -7 -7 -7 -7 -7 -7 -6 -6 -7 -8 -8 -9 -7 -8 -7 -7 -8 -10 -9 -10 -10 -9 -10 -10 -9 -9 -9 -10 -9 -9
-8 -7 -7 -7 -7 -7 -7 -7 -6 -7 -7 -7 -7 -7 -7 -7 -7 -7 -7 -7 -8 -8 -8 -9 -9 -8 -7 -8 -9 -9 -9 -9 -12 -12 -12 -12 -11 -10 -11 -11 -10 -9 -9 -10
-8 -8 -7 -7 -7 -7 -7 -6 -6 -6 -6 -7 -7 -7 -7 -8 -8 -7 -7 -6 -7 -7 -8 -9 -8 -8 -7 -7 -7 -8 -9 -9 -10 -10 -10 -9 -11 -11 -10 -10 -10 -10 -10 -10
-8 -7 -8 -8 -7 -7 -7 -7 -7 -7 -6 -6 -7 -7 -7 -7 -7 -7 -7 -7 -7 -7 -7 -8 -9 -8 -8 -8 -8 -8 -9 -9 -9 -10 -11 -10 -10 -11 -11 -10 -11 -11 -10 -9
-8 -7 -7 -7 -8 -7 -7 -7 -6 -6 -6 -7 -7 -8 -8 -8 -7 -7 -7 -7 -7 -7 -8 -8 -8 -9 -9 -9 -10 -9 -10 -9 -9 -10 -11 -11 -11 -11 -11 -11 -11 -11 -11 -10
-7 -8 -7 -7 -7 -8 -8 -7 -7 -7 -7 -7 -7 -8 -7 -7 -7 -7 -7 -7 -7 -7 -7 -8 -8 -8 -9 -10 -9 -9 -9 -9 -10 -10 -11 -10 -10 -11 -11 -12 -11 -11 -11 -10
-8 -8 -8 -7 -7 -7 -7 -7 -8 -8 -8 -8 -8 -8 -8 -7 -7 -7 -7 -7 -7 -7 -8 -8 -8 -8 -8 -8 -9 -10 -10 -9 -10 -10 -12 -11 -11 -12 -12 -11 -11 -12 -11 -11
Height
5909 5911 5915 5916 5920 5919 5918 5915 5915 5914 5917 5916 5916 5909 5906 5902 5902 5908 5914 5915 5916 5915 5915 5914 5914 5914 5914 5913 5914 5914 5915 5915 5917 5918 5920 5920 5919 5921 5924 5925 5926 5928 5927 5928
5909 5910 5913 5918 5918 5917 5917 5919 5920 5919 5922 5922 5917 5909 5902 5905 5910 5911 5916 5915 5916 5915 5916 5914 5914 5914 5913 5913 5914 5915 5916 5916 5917 5918 5917 5917 5919 5921 5922 5924 5924 5925 5925 5928
5907 5909 5911 5914 5912 5914 5917 5917 5917 5918 5919 5920 5915 5911 5912 5915 5915 5913 5914 5914 5916 5918 5916 5915 5915 5915 5915 5915 5914 5914 5915 5915 5916 5916 5916 5916 5917 5920 5922 5924 5922 5922 5921 5924
5907 5910 5910 5910 5913 5911 5911 5912 5912 5916 5917 5916 5917 5913 5913 5914 5916 5915 5913 5912 5918 5919 5918 5917 5918 5916 5915 5916 5915 5915 5914 5915 5915 5915 5914 5914 5915 5919 5920 5921 5921 5918 5915 5920
5910 5909 5910 5910 5909 5908 5911 5913 5914 5916 5915 5914 5916 5912 5913 5912 5913 5916 5916 5916 5915 5917 5919 5919 5919 5919 5917 5916 5915 5915 5915 5915 5916 5916 5915 5916 5915 5917 5920 5919 5918 5917 5915 5917
5909 5909 5909 5909 5909 5910 5911 5910 5912 5913 5913 5914 5914 5913 5913 5912 5912 5912 5910 5912 5914 5915 5919 5919 5920 5920 5919 5917 5916 5914 5914 5915 5916 5916 5915 5916 5915 5917 5916 5915 5917 5916 5916 5915
5906 5908 5907 5910 5910 5908 5908 5908 5911 5911 5913 5915 5912 5913 5912 5909 5912 5909 5912 5915 5914 5913 5917 5918 5918 5919 5918 5918 5916 5914 5913 5913 5915 5916 5916 5917 5916 5916 5916 5917 5916 5915 5917 5916
5907 5907 5910 5910 5908 5906 5908 5910 5908 5910 5912 5914 5913 5912 5907 5909 5910 5909 5912 5915 5916 5913 5912 5915 5915 5916 5916 5916 5916 5914 5913 5913 5914 5915 5916 5916 5916 5916 5916 5914 5914 5916 5916 5911
5908 5911 5911 5911 5910 5908 5908 5907 5909 5910 5913 5912 5911 5911 5909 5907 5907 5906 5910 5914 5915 5914 5908 5910 5911 5913 5912 5911 5911 5911 5911 5911 5912 5913 5913 5914 5915 5916 5916 5916 5916 5916 5913 5912
5908 5908 5910 5910 5909 5906 5907 5907 5909 5909 5911 5913 5911 5909 5909 5907 5905 5905 5906 5910 5908 5904 5903 5904 5904 5905 5907 5906 5906 5906 5905 5907 5907 5910 5910 5910 5911 5912 5913 5915 5916 5916 5914 5911
5906 5905 5906 5907 5907 5906 5908 5907 5907 5908 5910 5912 5911 5909 5908 5907 5905 5900 5903 5906 5902 5896 5894 5894 5901 5901 5898 5900 5902 5903 5903 5904 5905 5906 5906 5906 5907 5908 5908 5910 5911 5912 5912 5912
5904 5904 5902 5905 5906 5907 5906 5905 5904 5904 5906 5907 5908 5909 5904 5899 5900 5899 5901 5902 5898 5895 5893 5892 5885 5898 5893 5893 5901 5902 5901 5899 5903 5905 5905 5904 5903 5904 5905 5906 5907 5908 5909 5910
5900 5900 5903 5903 5903 5901 5902 5903 5901 5901 5901 5903 5904 5904 5900 5898 5897 5896 5896 5898 5894 5888 5892 5891 5886 5881 5882 5889 5896 5904 5903 5899 5897 5900 5902 5902 5901 5901 5900 5902 5903 5903 5904 5905
5897 5897 5898 5900 5897 5896 5897 5897 5897 5897 5899 5899 5900 5898 5898 5891 5886 5890 5890 5892 5891 5882 5883 5886 5885 5883 5882 5876 5887 5891 5890 5893 5893 5893 5896 5899 5899 5900 5899 5899 5901 5901 5901 5902
5894 5894 5894 5894 5894 5894 5895 5894 5894 5894 5895 5895 5898 5894 5892 5890 5885 5882 5883 5883 5884 5881 5873 5879 5881 5879 5876 5874 5885 5889 5887 5888 5888 5886 5892 5892 5893 5896 5895 5894 5896 5899 5899 5899
5889 5889 5888 5889 5888 5887 5888 5889 5889 5889 5889 5889 5890 5892 5888 5886 5884 5881 5877 5876 5878 5879 5873 5870 5871 5872 5874 5877 5878 5878 5880 5882 5879 5879 5884 5883 5885 5886 5878 5887 5892 5894 5894 5894
5884 5883 5883 5884 5883 5883 5884 5884 5883 5884 5884 5885 5884 5884 5883 5883 5877 5875 5874 5874 5873 5872 5875 5870 5859 5863 5868 5870 5872 5874 5873 5870 5870 5874 5873 5873 5875 5879 5878 5882 5882 5887 5888 5888
5878 5878 5878 5878 5878 5879 5878 5877 5877 5879 5879 5878 5875 5876 5878 5873 5870 5871 5872 5872 5873 5870 5867 5858 5833 5858 5862 5865 5865 5864 5864 5865 5866 5866 5863 5865 5865 5868 5870 5871 5875 5878 5878 5879
5872 5872 5872 5872 5872 5874 5872 5870 5872 5873 5872 5871 5870 5872 5871 5870 5867 5866 5866 5866 5865 5867 5865 5859 5851 5848 5851 5856 5856 5856 5856 5857 5860 5860 5860 5858 5858 5857 5860 5863 5864 5866 5870 5869
5866 5867 5867 5867 5867 5868 5867 5862 5865 5867 5864 5865 5865 5868 5866 5865 5862 5858 5857 5856 5857 5857 5855 5848 5845 5839 5840 5837 5800 5832 5838 5840 5844 5845 5845 5845 5847 5850 5853 5855 5853 5854 5857 5856
5858 5859 5861 5861 5859 5861 5861 5857 5858 5861 5863 5858 5859 5860 5858 5856 5854 5852 5853 5852 5849 5845 5841 5833 5835 5836 5833 5829 5811 5821 5817 5819 5823 5826 5831 5833 5835 5836 5839 5840 5842 5843 5842 5842
5854 5852 5852 5853 5853 5852 5852 5850 5852 5853 5852 5852 5851 5850 5852 5849 5846 5842 5838 5840 5842 5842 5839 5831 5825 5824 5824 5823 5819 5815 5816 5796 5810 5809 5815 5816 5816 5821 5823 5826 5828 5831 5834 5835
5846 5846 5846 5847 5845 5844 5844 5844 5845 5844 5844 5843 5843 5842 5839 5837 5835 5835 5834 5831 5827 5823 5821 5817 5810 5802 5800 5800 5801 5800 5805 5803 5802 5800 5806 5803 5795 5801 5808 5814 5816 5818 5821 5824
5837 5836 5837 5841 5840 5835 5838 5836 5833 5836 5837 5837 5836 5833 5830 5826 5824 5822 5820 5819 5820 5819 5816 5809 5798 5791 5793 5790 5787 5786 5781 5786 5785 5787 5791 5792 5790 5792 5796 5797 5803 5805 5808 5808
5831 5830 5830 5832 5833 5832 5830 5828 5829 5827 5827 5826 5824 5821 5820 5817 5815 5813 5809 5806 5803 5801 5799 5797 5793 5787 5774 5769 5772 5771 5769 5768 5766 5766 5769 5773 5774 5775 5774 5779 5784 5787 5791 5792
5822 5823 5821 5822 5825 5824 5826 5823 5822 5821 5821 5818 5816 5814 5811 5807 5803 5799 5795 5792 5790 5787 5784 5781 5778 5773 5768 5763 5753 5748 5747 5747 5748 5748 5747 5749 5753 5755 5757 5759 5763 5768 5773 5775
Wind_Speed
12 11 15 11 8 10 21 19 19 26 24 15 9 17 18 13 13 14 15 18 18 20 18 16 17 15 8 5 2 1 3 9 7 9 9 11 15 15 13 13 11 11 11 6
9 7 12 16 12 13 18 6 8 15 16 4 10 19 22 24 21 16 13 15 19 17 20 23 16 15 13 9 2 2 2 5 4 5 6 7 10 10 11 10 12 12 12 12
5 5 3 15 19 19 12 8 4 11 11 7 12 16 11 26 18 22 6 10 12 16 15 18 20 16 13 11 7 2 4 4 6 5 7 7 10 6 6 7 16 14 13 12
1 8 10 19 8 6 6 11 14 10 14 12 4 19 18 19 17 25 16 9 9 11 14 14 17 17 13 10 7 5 1 3 3 5 5 6 6 8 10 12 17 8 13 6
8 9 10 11 6 10 10 6 13 13 5 8 3 13 24 25 15 13 10 10 15 20 13 12 14 16 14 10 8 4 4 1 3 3 3 5 6 8 4 1 7 9 7 6
19 18 17 20 7 4 7 11 13 16 14 15 12 14 23 12 12 10 9 18 26 24 18 12 11 12 15 12 7 5 2 2 2 2 3 5 5 6 3 3 1 2 2 4
23 14 12 21 3 6 2 8 8 8 7 11 11 16 14 13 13 5 5 17 21 28 23 13 12 14 16 14 9 7 1 1 3 5 5 4 5 5 5 3 2 1 3 3
16 8 11 23 22 9 10 6 7 5 6 13 13 19 6 15 4 3 11 14 17 27 31 23 19 14 14 14 9 6 6 3 4 7 6 5 3 3 3 3 2 1 2 5
10 7 9 6 9 8 7 15 4 6 3 7 15 7 6 19 8 11 20 12 23 27 29 27 19 17 14 17 12 7 4 5 7 10 10 9 7 5 2 3 2 2 3 5
11 11 5 10 14 12 9 7 6 7 6 5 11 8 9 9 18 24 26 28 27 25 27 22 20 22 19 18 16 12 10 8 8 11 12 11 10 9 8 7 4 4 6 4
18 16 15 7 7 14 9 17 17 12 5 3 9 19 19 23 23 31 27 27 28 23 22 24 23 28 26 20 15 12 10 8 9 11 11 10 9 9 10 8 8 7 7 7
11 13 12 15 8 12 18 22 1 5 14 11 8 13 15 22 24 33 33 24 24 18 15 22 30 38 47 24 17 16 17 15 10 11 11 11 10 11 10 10 10 9 10 12
9 8 1 10 9 10 2 7 9 12 17 14 7 14 17 25 33 30 11 10 14 18 18 21 28 32 26 33 13 8 22 18 16 11 11 12 12 14 12 11 11 11 11 14
11 11 11 13 18 19 16 16 17 16 14 16 14 10 16 20 32 22 24 15 15 28 29 23 28 33 35 22 19 16 11 21 24 17 15 14 15 16 18 15 15 15 16 16
10 12 14 15 17 18 23 25 25 25 20 17 19 22 22 22 27 33 33 34 24 25 35 27 23 27 24 19 30 26 14 18 22 15 18 19 15 21 23 22 19 19 19 20
13 14 16 17 19 20 19 19 19 17 16 18 18 19 30 33 30 31 41 45 33 29 29 26 24 24 26 30 30 27 25 22 23 21 23 27 26 33 27 21 25 23 23 23
19 18 17 13 16 17 15 15 19 18 20 17 20 21 22 22 30 39 41 39 34 35 29 33 27 24 25 29 33 32 30 30 27 26 29 29 30 35 21 16 15 28 27 30
21 19 17 13 13 11 13 16 17 19 20 22 26 25 24 28 33 34 35 36 34 33 25 30 27 26 25 26 29 34 33 30 32 32 34 34 33 32 26 25 25 21 24 30
22 20 18 16 14 11 13 17 17 19 19 19 21 22 24 28 32 33 33 34 33 27 23 32 33 31 31 25 24 28 36 39 38 38 38 36 34 35 36 33 33 25 26 27
20 15 19 19 18 16 16 27 22 19 27 26 25 24 27 29 32 35 36 37 35 34 34 37 30 30 33 41 36 35 39 35 33 35 36 43 43 38 39 38 33 32 35 33
26 24 18 19 22 20 21 28 27 25 27 28 26 26 27 29 33 35 35 35 36 39 40 44 43 41 48 47 42 25 45 43 34 29 30 32 36 40 38 35 37 38 32 32
26 28 25 20 21 24 26 29 27 27 25 25 26 27 26 29 33 38 42 41 37 36 38 43 47 49 48 48 49 47 48 32 35 36 41 42 36 35 36 34 32 33 36 38
28 27 25 26 26 26 27 28 28 28 26 26 26 26 31 35 37 38 39 41 44 47 47 48 50 55 57 57 55 54 45 48 55 52 58 59 37 35 37 41 38 39 39 38
30 29 30 25 25 30 27 30 33 30 29 29 30 31 34 37 39 39 41 42 42 43 45 48 54 56 54 55 55 56 59 56 58 56 52 50 57 60 49 49 51 44 42 42
29 30 31 27 23 25 29 33 34 36 35 35 34 34 34 36 38 41 43 43 43 42 41 42 44 48 55 57 54 54 54 58 60 61 57 57 55 55 54 53 51 48 48 48
29 31 34 32 28 28 27 32 35 36 34 33 32 34 36 38 40 40 39 38 38 38 38 38 43 47 51 56 62 64 64 63 61 64 63 60 57 55 56 56 53 50 50 50
Wind_Direction
227 212 173 7 315 339 316 325 340 357 5 329 290 275 280 161 130 64 51 50 48 51 52 54 48 48 62 80 86 134 207 234 236 248 254 245 240 236 240 237 229 227 239 259
215 123 49 340 288 263 269 29 0 334 334 96 276 305 330 352 360 19 17 35 40 35 41 45 37 39 36 38 22 213 201 235 224 219 244 249 250 240 235 218 226 229 230 244
213 157 285 258 274 276 277 20 290 265 288 308 278 299 317 315 333 339 334 26 24 29 26 26 31 32 29 25 19 53 215 202 237 240 257 254 250 250 242 236 233 236 235 238
128 3 261 238 288 344 266 221 239 277 278 284 243 292 295 279 305 322 324 27 21 24 27 17 12 20 30 21 10 16 58 137 220 256 246 238 238 231 245 275 249 316 229 229
37 8 329 294 227 268 321 6 56 34 11 289 158 278 302 315 325 325 315 355 19 10 357 5 5 359 16 19 5 1 11 75 137 160 175 120 138 150 164 335 302 283 359 315
21 5 354 13 303 328 109 81 34 358 3 5 352 301 290 305 320 266 267 356 351 351 343 324 345 342 350 358 0 345 9 25 147 152 167 140 111 110 107 60 40 347 351 310
360 327 353 338 295 218 138 52 327 55 327 300 305 342 312 277 302 177 27 341 346 339 343 299 294 309 315 330 334 326 304 177 187 197 199 171 141 101 100 123 85 58 62 55
38 349 295 324 329 286 199 169 293 239 17 5 238 293 304 312 246 297 282 320 327 317 314 318 280 278 288 302 298 307 298 236 198 214 233 219 179 121 69 24 68 65 126 165
105 130 349 43 28 27 232 201 253 270 112 15 337 301 287 328 243 287 308 302 311 311 302 308 276 257 246 273 260 250 253 250 226 213 227 234 244 263 279 298 316 217 218 309
199 192 60 316 331 343 321 255 214 173 144 30 322 317 351 257 264 275 286 304 309 314 310 296 253 226 229 239 245 232 218 217 228 229 223 234 244 251 262 273 247 230 219 231
240 239 192 199 242 324 279 306 301 181 167 302 305 308 297 287 278 278 289 305 312 301 286 269 256 238 227 219 208 209 208 215 219 234 227 220 233 248 256 253 263 254 211 185
276 281 230 202 209 286 287 296 223 169 189 194 283 327 286 280 285 292 302 311 308 306 288 274 243 259 228 211 211 231 238 197 216 232 240 248 244 243 251 246 235 228 212 196
280 273 302 159 173 195 300 284 230 232 205 208 253 284 278 296 283 274 306 296 329 311 300 276 274 286 274 266 225 244 262 228 207 215 240 251 249 247 250 252 230 223 220 211
280 268 259 216 205 219 219 219 246 263 256 213 202 249 265 294 291 287 288 319 316 307 305 285 275 280 288 295 307 326 209 242 248 237 243 256 270 266 254 247 238 229 224 219
276 275 269 266 260 261 258 270 277 282 284 267 219 232 259 269 285 299 301 303 314 316 310 302 291 284 292 305 289 288 260 255 252 244 255 256 261 266 262 245 234 233 229 229
284 275 269 267 268 265 267 274 286 278 275 269 267 248 243 254 273 284 276 287 303 300 289 298 299 294 285 281 282 285 280 269 258 263 260 258 254 255 223 252 255 249 239 234
287 282 277 272 270 269 276 272 274 271 272 283 274 266 264 257 256 264 275 288 291 297 299 295 283 288 284 278 280 278 275 280 280 272 264 265 263 259 302 298 265 255 246 235
280 278 276 275 274 273 258 256 251 262 263 257 259 269 273 265 271 278 284 293 300 308 319 291 300 284 278 278 274 273 274 269 266 267 267 265 264 273 280 288 286 271 259 258
278 271 270 276 280 272 257 245 262 277 279 278 273 277 281 283 288 291 292 293 296 300 295 287 297 295 289 279 264 260 259 259 259 260 263 260 270 276 277 278 277 271 265 263
276 268 275 277 274 272 266 274 274 278 273 276 282 288 288 290 289 291 295 298 298 298 293 282 299 287 286 293 225 253 260 270 263 258 256 260 266 269 275 274 273 279 271 266
274 278 266 268 273 271 258 270 284 275 276 285 294 297 292 289 289 289 290 289 290 291 292 289 286 283 280 278 282 265 262 255 253 261 262 260 263 267 268 269 271 270 270 274
264 270 278 275 269 268 271 274 279 287 293 294 289 288 289 288 286 287 290 290 288 287 287 287 285 283 281 281 283 283 292 250 260 245 262 266 255 261 264 268 270 267 265 262
261 265 267 268 278 278 279 282 289 290 289 292 299 296 289 285 284 285 285 287 292 294 294 292 289 293 295 295 294 291 287 279 275 279 277 288 234 245 258 265 263 262 261 260
265 268 271 270 271 275 284 285 281 289 296 296 293 290 287 290 293 294 292 292 288 286 286 288 291 289 285 284 283 284 284 281 278 275 270 264 272 275 260 267 271 265 264 263
261 266 269 269 267 267 273 277 287 292 297 297 295 290 291 293 294 294 293 292 292 292 290 286 283 283 286 287 284 280 277 277 277 274 271 267 261 263 266 265 264 266 267 267
256 262 266 267 271 276 276 278 279 285 289 287 288 291 295 296 299 300 298 298 299 298 296 292 289 284 282 282 282 280 277 274 271 271 270 270 269 267 265 265 267 267 266 265